Location: Puketoi
(40.5833°S, 176.0167°E)
Time: 12:04:57
(UTC+00:00)

Meteor 1-28 Rocket - Pass Details

Date: 08 February 2023
Orbit: 492 x 511 km, 97.4° (Epoch: 30 March)

Event Time Altitude Azimuth Distance (km) Brightness Sun altitude
Rises 15:52:03 0° 177° (S) 2,618 7.4 -17.4°
Reaches altitude 10° 15:54:15 10° 185° (S) 1,724 6.3 -17.1°
Maximum altitude 15:57:42 37° 253° (WSW) 789 3.8 -16.6°
Enters shadow 15:58:28 33° 282° (WNW) 857 3.8 -16.5°
